Location: Unspecified
(0.0000°N, 0.0000°E)
Time: 13:42:40
(UTC+00:00)

Tiros 1 - Pass Details

Date: 19 November 2019
Orbit: 630 x 664 km, 48.4° (Epoch: 08 December)

Event Time Altitude Azimuth Distance (km) Brightness Sun altitude
Rises 10:01:29 0° 196° (SSW) 2,947 10.7 58.0°
Reaches altitude 10° 10:04:18 10° 180° (S) 2,029 10.2 58.5°
Maximum altitude 10:07:52 22° 130° (SE) 1,407 9.9 59.2°
Drops below altitude 10° 10:11:24 10° 80° (E) 2,010 10.1 59.9°
Sets 10:14:09 0° 64° (ENE) 2,910 10.7 60.4°
